Tanger, Morocco

2:28 PM WEST on October 20, 2017 (GMT +0100)
Tanger

Weather History for GMTT - October, 2012

Change the Weather History Date:

Wednesday, October 24, 2012

  Actual Average Record
Temperature  
Mean Temperature 70 °F -  
Max Temperature 77 °F 67 °F 85 °F (2014)
Min Temperature 64 °F 52 °F 46 °F (2003)
Cooling Degree Days 6    
Growing Degree Days 20 (Base 50)    
Moisture  
Dew Point 62 °F    
Average Humidity 75    
Maximum Humidity 94    
Minimum Humidity 44    
Precipitation  
Precipitation 0.24 in 0.16 in - ()
Sea Level Pressure  
Sea Level Pressure 29.92 in    
Wind  
Wind Speed 10 mph ()    
Max Wind Speed 18 mph    
Max Gust Speed 25 mph    
Visibility 4.2 miles    
Events Rain    
Averages and records for this station are not official NWS values.
T = Trace of Precipitation, MM = Missing Value Source: Averaged Metar Reports

Daily Weather History Graph

Daily Weather History Graph

Search for Another Location

Airport or City:

Trip Planner

Search our weather history database for the weather conditions in past years. The results will help you decide how hot, cold, wet, or windy it might be!

Date:

Astronomy

Oct. 24, 2012 Rise Set
Actual Time 6:38 AM WET 5:36 PM WET
Civil Twilight 6:12 AM WET 6:02 PM WET
Nautical Twilight 5:42 AM WET 6:32 PM WET
Astronomical Twilight 5:12 AM WET 7:02 PM WET
Moon 2:36 PM WET (10/24) 1:29 AM WET (10/24)
Length of Visible Light 11h 50m
Length of Day
10h 58m
Waxing Gibbous, 74% of the Moon is Illuminated
Oct 24
Waxing Gibbous
Oct 29
Full
Nov 7
Last Quarter
Nov 13
New
Nov 20
First Quarter

Hourly Weather History & Observations

Time (WET) Temp. Dew Point Humidity Pressure Visibility Wind Dir Wind Speed Gust Speed Precip Events Conditions
12:00 AM - - %  in 5 mi East 13.8 mph - -   Partly Cloudy
12:00 AM - - N/A% 29.95 in 5.0 mi East 12.7 mph - N/A   Mostly Cloudy
12:30 AM - - N/A% 29.98 in 1.1 mi ESE 9.2 mph - N/A   Mostly Cloudy
2:30 AM - - N/A% 29.89 in 5.0 mi East 13.8 mph - N/A   Scattered Clouds
3:00 AM - - %  in 1 mi ESE 9.2 mph - -  
3:00 AM - - N/A% 29.92 in 1.1 mi ESE 9.2 mph - N/A   Scattered Clouds
3:30 AM - - N/A% 29.92 in 1.1 mi East 15.0 mph - N/A   Scattered Clouds
4:00 AM - - N/A% 29.92 in 0.9 mi ESE 11.5 mph - N/A   Unknown
4:30 AM - - N/A% 29.95 in 1.0 mi East 12.7 mph - N/A   Partly Cloudy
5:00 AM - - N/A% 29.95 in 1.1 mi ESE 11.5 mph - N/A   Partly Cloudy
5:30 AM - - N/A% 29.95 in 1.1 mi ESE 16.1 mph - N/A   Partly Cloudy
6:00 AM - - %  in 5 mi ESE 12.7 mph - -  
6:00 AM - - N/A% 29.92 in 5.0 mi ESE 12.7 mph - N/A   Partly Cloudy
6:30 AM - - N/A% 29.92 in 5.0 mi ESE 12.7 mph - N/A   Partly Cloudy
7:00 AM - - N/A% 29.92 in 5.0 mi ESE 11.5 mph - N/A   Partly Cloudy
7:30 AM - - N/A% 29.95 in 5.0 mi ESE 11.5 mph - N/A   Partly Cloudy
8:00 AM - - N/A% 29.95 in 5.0 mi East 11.5 mph - N/A   Partly Cloudy
8:30 AM - - N/A% 29.98 in 5.0 mi East 9.2 mph - N/A   Mostly Cloudy
9:00 AM - - %  in 5 mi ESE 11.5 mph - -   Mostly Cloudy
9:00 AM - - N/A% 29.98 in 5.0 mi ESE 11.5 mph - N/A   Mostly Cloudy
9:30 AM - - N/A% 29.98 in 5.0 mi ESE 9.2 mph - N/A   Mostly Cloudy
10:00 AM - - N/A% 29.98 in 5.0 mi South 10.4 mph - N/A   Mostly Cloudy
10:30 AM - - N/A% 29.98 in 5.0 mi South 9.2 mph - N/A   Scattered Clouds
11:00 AM 75.2 °F 59.0 °F 57% 29.95 in 5.0 mi SSW 10.4 mph - N/A   Scattered Clouds
11:30 AM 77.0 °F 59.0 °F 54% 29.95 in 5.0 mi SSW 10.4 mph - N/A   Mostly Cloudy
12:00 PM 77 °F 59 °F 44% 29.94 in 5 mi South 10.4 mph - -   Partly Cloudy
12:00 PM 77.0 °F 59.0 °F 54% 29.92 in 5.0 mi South 10.4 mph - N/A   Mostly Cloudy
12:30 PM 77.0 °F 59.0 °F 54% 29.92 in 5.0 mi SSW 10.4 mph - N/A   Mostly Cloudy
1:00 PM 77.0 °F 60.8 °F 57% 29.92 in 5.0 mi WSW 13.8 mph - N/A   Mostly Cloudy
1:30 PM 77.0 °F 59.0 °F 54% 29.92 in 5.0 mi SW 18.4 mph - N/A   Mostly Cloudy
2:00 PM 75.2 °F 57.2 °F 53% 29.92 in 5.0 mi SW 17.3 mph - N/A   Mostly Cloudy
2:30 PM 73.4 °F 59.0 °F 61% 29.92 in 5.0 mi WSW 17.3 mph - N/A   Mostly Cloudy
3:00 PM 73 °F 62 °F 59% 29.92 in 6 mi WSW 17.3 mph - -   Mostly Cloudy
3:00 PM 73.4 °F 60.8 °F 65% 29.92 in 6.2 mi WSW 17.3 mph - N/A   Mostly Cloudy
3:30 PM 71.6 °F 62.6 °F 73% 29.92 in 6.2 mi WSW 13.8 mph - N/A   Mostly Cloudy
4:00 PM 71.6 °F 64.4 °F 78% 29.89 in 6.2 mi WSW 10.4 mph - N/A   Mostly Cloudy
4:30 PM 69.8 °F 64.4 °F 83% 29.89 in 6.2 mi WNW 6.9 mph - N/A   Mostly Cloudy
5:00 PM 69.8 °F 64.4 °F 83% 29.89 in 5.0 mi NW 3.5 mph - N/A   Mostly Cloudy
5:30 PM 69.8 °F 64.4 °F 83% 29.89 in 5.0 mi Variable 2.3 mph - N/A   Mostly Cloudy
6:00 PM 69 °F 64 °F 79% 29.90 in 5 mi East 3.5 mph - -   Mostly Cloudy
6:00 PM 69.8 °F 64.4 °F 83% 29.89 in 5.0 mi East 3.5 mph - N/A   Mostly Cloudy
6:30 PM 68.0 °F 62.6 °F 83% 29.89 in 5.0 mi East 4.6 mph - N/A   Mostly Cloudy
7:00 PM 68.0 °F 62.6 °F 83% 29.89 in 5.0 mi Variable 1.2 mph - N/A   Mostly Cloudy
7:30 PM 68.0 °F 62.6 °F 83% 29.89 in 5.0 mi Variable 2.3 mph - N/A   Mostly Cloudy
8:00 PM 68.0 °F 64.4 °F 88% 29.89 in 5.0 mi Calm Calm - N/A   Mostly Cloudy
8:30 PM 68.0 °F 64.4 °F 88% 29.92 in 1.9 mi WSW 10.4 mph 25.3 mph N/A Rain Rain
9:00 PM 65 °F 63 °F 90% 29.92 in 3 mi WSW 10.4 mph - - Rain Light Rain
9:00 PM 64.4 °F 62.6 °F 94% 29.92 in 3.1 mi WSW 10.4 mph - N/A   Mostly Cloudy
9:30 PM 66.2 °F 64.4 °F 94% 29.89 in 3.1 mi SW 6.9 mph - N/A Rain Light Rain
10:00 PM 66.2 °F 64.4 °F 94% 29.89 in 3.7 mi SSW 4.6 mph - N/A   Mostly Cloudy
10:30 PM 66.2 °F 64.4 °F 94% 29.89 in 3.7 mi SSW 6.9 mph - N/A   Mostly Cloudy
11:00 PM 66.2 °F 64.4 °F 94% 29.89 in 3.7 mi SSW 9.2 mph - N/A   Mostly Cloudy
11:30 PM 66.2 °F 62.6 °F 88% 29.89 in 3.7 mi SSW 9.2 mph - N/A   Mostly Cloudy